Погода Родино

Погода Родино : погода сейчас, прогноз погоды и архив. Всё, что Вы хотите узнать о погоде Родино!

Поиск расширенной информации на нашем сайте:

Полезная информация: Метка стоматология таганрог.

Другие новости

Новости СМИ2

Главная страница сайта

Новости сайта

02.10.2013

Напоминаем, что на нашем новом сайте вы можете получить высокодетализированные прогнозы погоды по пунктам России, СНГ и мира (включающие важные для авиации метеовеличины, такие как направление и скорость ветра, видимость, явления погоды, количество и форма облачности, нижняя и верхняя граница облачности), а также ознакомиться с разнообразными материалами по авиационной метеорологии и подборкой полезных ссылок на эту тему.

Сайт Метеоцентр.Азия посвящён разработке технологий оптимизации авиаметеорологического обслуживания, включая проектирование и перспективное создание нескольких автоматизированных авиаметеорологических систем:
- система выпуска высокодетальных прогностических карт явлений погоды для нижнего воздушного пространства по России и ближнему зарубежью;
- система верификации прогнозов TAF (выпускаемых синоптиками официальных АМСГ РФ и ближнего зарубежья) и AUTOTAF (выпускаемых сайтом Метеоцентр.Азия) - выявление ошибок, онлайн-сопоставление с фактической погодой METAR, автоматическое внесение коррективов в прогнозы при резком отклонении фактической погоды от прогноза, подсчёт оправдываемости прогнозов по элементам и в целом;
- система обработки, анализа и отображения авиаметеорологической информации для применения провайдерами метеорологической информации.

Рекомендуем: бани сауны екатеринбурга

Погода Родино - сегодня

Время (UTC), дата Ветер
(°,м/с) 
Видим.   Явления Облачность Т
(°С)
Тd
(°С)
f(%) Тe
(°С)
Pmin
(гПа)
dP
(гПа)
Po
(мм)
O2
(г/м3)
Тmin Tmax R s Состояние
почвы
18 26.04.17 160 (Ю) 20000 м    1/0 верхняя 
[Ci fib]
+12.6 +1.8 48 +13  1016.3  -0.6  748  288           
21 26.04.17 150 (ЮВ) 20000 м    ясно 
+11.5 +2.1 52 +11  1015.4  -1  747  289           
00 27.04.17 160 (Ю) 20000 м    ясно 
+12.8 +3 51 +12  1014  -1.3  746  287  +11.2         
06 27.04.17 200 (Ю) 7-11{13}  20000 м    1/0 верхняя 
[Ci fib]
+26.8 +1.3 19 +27  1012.4  -0.2  746  273           
09 27.04.17 220 (ЮЗ) 6{11}  20000 м    4/0 верхняя 
[Ci sp]
+28.8 +3.9 20 +29  1011.6  -0.6  745  271           
12 27.04.17 320 (СЗ) 20000 м    5/1 600 м верхняя 
[Cu hum|Ci sp]
+26.7 +8.9 33 +27  1011.8  0.1  745  272    +29.2       
15 27.04.17 310 (СЗ) 20000 м    4/0 верхняя 
[Ci sp]
+18.8 +8.5 51 +19  1015.6  3.2  748  280           
18 27.04.17 320 (СЗ) 20000 м    3/0 верхняя 
[Ci sp]
+13.7 +7.8 67 +14  1017.2  1.3  749  286           
21 27.04.17 280 (З) 20000 м    3/0 верхняя 
[Ci sp]
+9.7 +6.9 83 +10  1019  1.5  750  291           
00 28.04.17 290 (З) 20000 м    9/9 300 м кучево-дожд. 
[Cb cap]
+11 +9.1 88 +11  1020.1  1.1  751  289  +9.6         
03 28.04.17 320 (СЗ) 20000 м    9/0 средняя, верхняя 
[Ac trans|Ci sp]
+13.5 +10.1 80 +15  1020.1  0.2  751  286           
06 28.04.17 310 (СЗ) 7-11{11}  20000 м    9/0 средняя, верхняя 
[Ac lent|Ci sp]
+16.3 +7.5 56 +16  1019.9  751  284           
09 28.04.17 320 (СЗ) 6{10}  20000 м    9/0 верхняя 
[Ci fib]
+16.8 +7.5 54 +17  1019.8  -0.1  751  284           
12 28.04.17 320 (СЗ) 5{11}  20000 м    9/0 верхняя 
[Ci sp]
+14.5 +6.5 59 +14  1020.3  0.4  751  286    +17       
15 28.04.17 310 (СЗ) 20000 м    9/0 верхняя 
[Ci sp]
+9.6 +6.4 80 +9  1021.5  0.9  752  292           
18 28.04.17 280 (З) 20000 м    4/0 верхняя 
[Ci sp]
+7.4 +6 91 +7  1023.2  1.4  753  294           
21 28.04.17 260 (З) 20000 м    10/10 480 м кучево-дожд. 
[Cb cap]
+7.6 +5.9 89 +9  1023.2  0.1  753  294           
00 29.04.17 220 (ЮЗ) 20000 м    9/9 300 м кучево-дожд., верхняя 
[Cb cap|Ci sp]
+8.1 +6.6 90 +7  1024  0.7  753  294  +6.8         
03 29.04.17 210 (ЮЗ) 20000 м    9/8 300 м кучево-дожд., верхняя 
[Cb cap|Ci sp]
+10.5 +6.1 74 +9  1024.3  0.5  754  291           
06 29.04.17 240 (ЮЗ) 6-11{11}  20000 м    9/0 средняя, верхняя 
[Ac trans|Ci sp]
+14.8 +3.4 46 +14  1022.8  -1.1  753  287           
12 29.04.17 230 (ЮЗ) 6{11}  20000 м    9/9 300 м кучево-дожд. 
[Cb cap]
+14.2 +2.6 45 +13  1021.6  -0.7  752  288    +15.3       
15 29.04.17 200 (Ю) 20000 м    9/9 300 м кучево-дожд. 
[Cb cap]
+12.3 +3 53 +12  1019.9  -1.9  751  289           
18 29.04.17 230 (ЮЗ) 20000 м    9/0 средняя, верхняя 
[Ac trans|Ci sp]
+11 +2.8 57 +10  1019.4  -0.5  750  290           
21 29.04.17 210 (ЮЗ) 20000 м    9/0 средняя, верхняя 
[Ac trans|Ci sp]
+9.7 +2.5 61 +8  1017.4  -2  749  291           
00 30.04.17 230 (ЮЗ) 20000 м    10/10 450 м кучево-дожд. 
[Cb cap]
+8.7 +4.6 75 +8  1017.3  -0.1  749  292  +8.7         
Время (UTC), дата Ветер
(°,м/с) 
Видим.   Явления Облачность Т
(°С)
Тd
(°С)
f(%) Тe
(°С)
Pmin
(гПа)
dP
(гПа)
Po
(мм)
O2
(г/м3)
Тmin Tmax R s Состояние
почвы

Для получения пояснительной информации подведите курсор к названию столбца.

ПОГОДА Родино - архив

Всё, что Вы хотите узнать о погоде Родино - удобно и подробно!

Выберите нужную дату (начиная с 1 января 2015* года) и нажмите кнопку "Найти".
Будут отображены архивные сводки погоды по пункту Родино, начиная с указанной даты.


Отображать данные в формате CSV (для использования в таблицах Excel)


Внимание! Наш архив погоды предназначен исключительно для личного некоммерческого использования в познавательных целях. Если Вам необходимы официальные справки о состоянии погоды (для производственных, юридических, коммерческих и т.п. целей), обращайтесь в органы Росгидромета.

*Примечание: данная дата относится к архиву по метеостанциям СССР (Россия, СНГ, Балтия).
Архив по метеостанциям Зарубежной Европы и Азии (кроме Китая) хранится 10 дней, по другим регионам земного шара (Китай, Африка, Америка, Австралия, Океания) - 1 день.

Родино - район местоположения метеостанции


Название, широта, долгота, высота метеостанции:
Родино 52.5°ш. 80.2°д. 59 м над ур. моря [Российская Федерация]

Дополнительная информация

В oтличие oт бoльшинства пoгoдных сайтoв мы публикуем пoдрoбную метеoинфoрмацию в детальнoм прoфессиoнальнoм фoрмате.

Характеристики температуры и влажнoсти вoздуха измеряются на высoте 2 м в тени вдали oт зданий и деревьев.
Скoрoсть ветра измеряется на высoте 10 м (на урoвне рoста челoвека скoрoсть ветра ниже в 1.5-2 раза). Если метеoстанция нахoдится в гoрoде или в лесу, тo скoрoсть ветра занижена на 2-4 м/с пo сравнению с oткрытым местoм. Скoрoсть ветра над акватoриями крупных рек и oзёр, а также на вершинах хoлмoв на 2-5 м/с выше, чем в oбычных услoвиях.
Атмoсфернoе давление в разных тoчках местнoсти мoжет значительнo oтличаться oт давления на метеoстанции, в зависимoсти oт услoвий рельефа (при пoдъёме на 10 м давление пoнижается примернo на 1 мм рт.ст.).